Weather History for Stillwater, OK

Change the Weather History Date:

Sunday, November 25, 2012

  Actual Average Record
Temperature  
Mean Temperature 52 °F -  
Max Temperature 66 °F 55 °F 71 °F (2006)
Min Temperature 39 °F 33 °F 21 °F (2010)
Degree Days  
Heating Degree Days 12    
Growing Degree Days 2 (Base 50)    
Moisture  
Dew Point 29 °F    
Average Humidity 43    
Maximum Humidity 61    
Minimum Humidity 29    
Precipitation  
Precipitation 0.00 in - - ()
Sea Level Pressure  
Sea Level Pressure 29.88 in    
Wind  
Wind Speed 7 mph (SE)    
Max Wind Speed 13 mph    
Max Gust Speed -    
Visibility 10 miles    
Events      
Averages and records for this station are not official NWS values.
T = Trace of Precipitation, MM = Missing Value Source: NWS Daily Summary

Daily Weather History Graph

Daily Weather History Graph

Search for Another Location

Airport:

Trip Planner

Search our weather history database for the weather conditions in past years. The results will help you decide how hot, cold, wet, or windy it might be!

Date:

Astronomy

Nov. 25, 2012 Rise Set
Actual Time 7:15 AM CST 5:15 PM CST
Civil Twilight 6:47 AM CST 5:43 PM CST
Nautical Twilight 6:16 AM CST 6:14 PM CST
Astronomical Twilight 5:45 AM CST 6:45 PM CST
Moon 3:30 PM CST (11/25) 4:34 AM CST (11/25)
Length of Visible Light 10h 55m
Length of Day
9h 59m
Waxing Gibbous, 93% of the Moon is Illuminated
Nov 25
Waxing Gibbous
Nov 28
Full
Dec 6
Last Quarter
Dec 13
New
Dec 19
First Quarter

Hourly Weather History & Observations

Time (CST) Temp. Windchill Dew Point Humidity Pressure Visibility Wind Dir Wind Speed Gust Speed Precip Events Conditions
12:53 AM 45.0 °F 40.1 °F 21.9 °F 40% 29.96 in 10.0 mi South 9.2 mph - N/A   Clear
1:53 AM 43.0 °F 39.5 °F 21.9 °F 43% 29.94 in 10.0 mi South 5.8 mph - N/A   Clear
2:53 AM 43.0 °F 38.2 °F 21.9 °F 43% 29.92 in 10.0 mi South 8.1 mph - N/A   Clear
3:53 AM 44.1 °F 39.5 °F 21.9 °F 42% 29.90 in 10.0 mi South 8.1 mph - N/A   Clear
4:53 AM 43.0 °F 38.8 °F 21.9 °F 43% 29.89 in 10.0 mi South 6.9 mph - N/A   Clear
5:53 AM 43.0 °F 39.5 °F 23.0 °F 45% 29.89 in 10.0 mi South 5.8 mph - N/A   Clear
6:53 AM 39.9 °F 36.7 °F 23.0 °F 51% 29.91 in 10.0 mi ESE 4.6 mph - N/A   Clear
7:53 AM 39.9 °F 36.7 °F 25.0 °F 55% 29.92 in 10.0 mi SE 4.6 mph - N/A   Clear
8:53 AM 48.0 °F - 25.0 °F 41% 29.92 in 10.0 mi SSE 4.6 mph - N/A   Clear
9:53 AM 51.1 °F - 26.1 °F 38% 29.92 in 10.0 mi South 5.8 mph - N/A   Clear
10:53 AM 57.0 °F - 28.0 °F 33% 29.91 in 10.0 mi Variable 5.8 mph - N/A   Clear
11:53 AM 61.0 °F - 28.9 °F 30% 29.88 in 10.0 mi Variable 3.5 mph - N/A   Clear
12:53 PM 63.0 °F - 30.0 °F 29% 29.84 in 10.0 mi East 4.6 mph - N/A   Clear
1:53 PM 64.0 °F - 32.0 °F 30% 29.82 in 10.0 mi SSE 6.9 mph - N/A   Clear
2:53 PM 66.0 °F - 33.1 °F 29% 29.82 in 10.0 mi Calm Calm - N/A   Clear
3:53 PM 66.0 °F - 34.0 °F 30% 29.82 in 10.0 mi South 6.9 mph - N/A   Clear
4:53 PM 64.0 °F - 34.0 °F 33% 29.83 in 10.0 mi Calm Calm - N/A   Clear
5:53 PM 55.9 °F - 35.1 °F 45% 29.85 in 10.0 mi East 4.6 mph - N/A   Clear
6:53 PM 50.0 °F - 34.0 °F 54% 29.86 in 10.0 mi NE 9.2 mph - N/A   Clear
7:53 PM 50.0 °F - 35.1 °F 57% 29.87 in 10.0 mi NE 9.2 mph - N/A   Clear
8:53 PM 48.0 °F - 34.0 °F 58% 29.87 in 10.0 mi NE 9.2 mph - N/A   Clear
9:53 PM 48.0 °F - 34.0 °F 58% 29.86 in 10.0 mi ENE 9.2 mph - N/A   Clear
10:53 PM 48.9 °F - 34.0 °F 56% 29.86 in 10.0 mi NE 9.2 mph - N/A   Clear
11:53 PM 46.0 °F 40.2 °F 33.1 °F 61% 29.86 in 10.0 mi NNE 12.7 mph - N/A   Clear